Wind_Speed
7 7 7 6 6 5 5 6 6 6 5 5 5 5 5 4 3 4 4 5 4 4 5 5 5 5 5 4 5 5 6 7 7 6 6 7 7 8 8 8 8 8 8
7 7 7 7 6 6 6 5 5 6 6 6 5 5 5 4 4 4 5 5 5 5 5 5 6 6 5 4 5 5 6 6 7 7 8 7 8 8 8 8 9 9 8
7 7 6 6 6 6 6 5 5 6 6 6 6 5 5 5 5 5 5 4 4 5 5 5 6 6 6 5 5 6 6 6 7 7 8 8 9 9 8 9 10 9 9
7 7 7 6 6 6 5 5 6 6 6 6 6 6 5 6 6 6 6 5 5 5 6 5 5 6 6 6 6 7 7 7 8 8 8 9 10 10 9 10 10 9 8
7 8 8 7 7 6 6 5 5 6 7 7 6 6 6 6 7 7 7 6 6 6 6 6 6 7 7 7 7 7 7 7 7 8 9 9 10 10 9 9 9 9 8
9 8 8 8 7 7 7 5 6 6 7 7 7 6 7 7 8 7 7 7 7 7 7 7 7 7 7 7 7 8 8 7 7 8 8 9 9 9 9 9 9 9 8
10 9 8 7 8 8 7 6 6 6 6 7 7 6 6 7 7 7 7 7 7 6 6 7 7 7 7 7 8 8 7 7 7 7 7 8 9 9 10 9 10 10 10
11 10 9 9 9 8 8 7 7 7 7 7 7 6 6 7 7 7 8 7 7 7 7 7 7 8 8 8 9 9 8 8 7 6 6 6 8 9 9 10 11 11 10
11 11 10 10 9 8 8 8 8 8 7 8 7 7 7 7 7 7 7 7 7 8 8 8 8 9 9 9 10 9 9 8 7 7 7 7 7 8 8 10 10 11 10
12 11 11 10 9 8 9 9 9 8 8 8 7 8 7 7 8 8 8 7 8 8 8 8 9 10 10 10 9 9 8 8 7 7 7 7 7 8 8 9 10 11 11
11 11 10 9 8 8 9 9 9 10 8 8 8 8 9 9 9 9 9 8 9 9 9 9 10 10 10 10 10 9 9 9 9 8 8 8 8 8 8 9 10 11 11
10 10 9 8 9 9 9 9 10 10 8 8 8 8 9 9 9 10 9 9 9 9 10 10 10 11 10 10 11 10 9 9 9 9 8 8 9 9 10 9 10 10 12
10 10 9 8 9 9 9 9 9 9 8 8 8 9 9 9 10 11 10 10 10 10 10 10 10 11 11 11 11 11 10 10 9 9 9 9 10 10 10 10 10 10 11
10 9 10 9 9 9 9 9 9 9 9 9 9 9 9 9 10 11 11 11 11 11 11 11 11 11 11 12 12 11 10 10 10 10 11 11 11 11 11 11 11 11 12
11 10 10 9 9 10 9 9 9 9 9 9 10 10 10 10 11 12 12 11 12 12 12 12 12 12 12 13 12 12 11 11 11 11 11 12 12 11 12 12 12 12 12
10 10 10 10 9 9 9 9 9 9 10 10 10 10 11 11 12 12 12 12 13 13 13 13 12 13 13 13 13 13 13 12 13 13 13 13 13 13 13 13 13 13 14
11 11 10 9 9 8 9 9 9 9 11 11 12 11 11 12 12 12 13 14 14 14 14 14 13 14 14 14 13 13 14 14 14 14 15 14 14 14 14 14 15 15 16
11 10 10 9 9 8 8 9 10 11 11 11 12 12 12 11 12 13 14 14 13 14 14 15 14 14 15 15 15 15 15 16 16 16 16 16 16 16 16 16 16 17 17
11 10 11 10 9 9 9 9 10 11 11 12 12 13 13 13 13 13 13 14 14 14 14 14 14 16 16 16 16 16 17 17 17 17 17 17 17 17 17 18 18 18 18
11 11 12 12 11 11 11 11 12 12 12 12 13 13 13 13 13 13 13 14 14 14 14 14 15 16 16 16 17 17 17 18 18 18 18 18 18 18 19 19 18 19 19
12 12 13 13 13 13 13 14 14 13 14 14 13 13 14 14 14 14 13 14 14 14 15 15 15 16 16 17 17 18 18 18 18 18 19 18 19 19 20 20 19 19 19
14 13 13 13 14 14 15 15 15 14 14 14 14 14 14 14 13 13 14 15 15 15 15 15 15 16 16 16 17 17 18 18 18 18 19 19 18 19 20 21 21 20 20
14 13 13 14 14 15 15 16 16 16 15 14 15 15 14 14 14 14 14 15 16 16 16 16 16 16 16 16 17 17 18 18 19 18 19 19 19 19 19 20 21 21 20
15 15 15 15 16 16 16 17 17 16 15 14 14 14 14 14 14 14 15 16 16 16 16 16 16 16 16 16 17 17 18 18 19 19 19 20 20 19 20 20 20 20 20
16 16 16 17 18 17 18 18 16 16 15 14 14 13 14 15 15 15 16 16 16 16 16 16 16 16 16 16 17 18 18 18 19 20 19 19 19 19 20 20 20 20 19
16 17 17 18 18 18 18 17 16 15 15 14 13 13 14 16 16 16 16 16 16 16 16 17 16 17 17 17 17 17 17 17 18 19 19 19 19 19 20 21 21 20 20
Wind_Direction
328 330 327 326 329 333 341 350 357 1 2 356 349 346 340 331 328 319 322 318 315 308 302 297 291 293 285 280 276 270 267 259 257 255 260 258 251 246 244 242 233 231 233
327 322 316 318 325 330 336 342 345 347 348 344 338 337 332 320 310 315 318 321 318 308 299 294 288 287 291 282 273 269 267 263 264 255 257 253 250 249 247 239 237 237 238
322 319 312 313 319 327 332 334 337 336 333 334 329 329 325 316 312 311 305 309 311 308 296 293 291 293 294 285 281 276 269 265 258 255 257 254 249 247 243 244 243 244 242
316 315 313 310 313 320 323 328 330 327 324 321 318 319 314 313 311 307 298 296 299 303 301 294 293 295 294 286 285 281 271 275 265 258 259 253 245 246 245 244 248 248 237
314 310 310 304 307 314 319 322 321 319 318 313 307 309 305 304 301 298 291 289 288 291 296 299 294 295 295 288 282 285 288 279 271 262 257 250 245 240 243 247 247 245 236
310 309 304 297 303 307 309 314 315 317 317 314 306 301 298 299 297 293 290 286 285 286 288 294 297 299 294 290 287 284 279 278 271 266 259 250 239 235 241 244 244 239 238
315 304 303 297 299 300 300 302 307 310 312 307 302 299 296 296 297 291 290 285 285 288 294 299 299 298 292 289 290 288 279 269 272 263 263 252 239 238 239 240 241 242 242
313 307 299 301 297 298 301 302 302 301 298 294 293 298 298 293 293 288 282 284 286 285 291 298 293 289 294 292 289 289 282 275 268 255 247 246 240 240 238 243 244 245 241
310 309 306 303 301 298 297 296 297 297 292 289 291 293 292 290 291 292 284 283 284 286 288 291 289 287 291 290 284 281 278 272 261 253 254 254 249 249 245 245 249 246 244
307 309 309 305 301 300 296 291 289 290 289 287 284 287 285 283 285 288 284 281 283 285 283 287 288 287 288 286 279 276 277 277 275 265 265 258 252 252 246 243 247 249 246
309 311 308 309 304 298 294 294 292 287 281 279 282 286 284 281 282 284 280 278 281 283 281 283 285 287 285 285 281 277 276 275 271 269 265 263 258 252 250 249 251 252 249
315 317 316 312 305 295 288 289 289 288 285 276 275 281 281 280 282 283 279 276 279 281 281 281 283 286 283 279 276 275 271 267 268 269 267 264 259 253 254 254 254 255 250
316 313 313 308 303 299 291 289 287 285 282 277 274 272 269 271 278 281 280 277 278 280 282 280 281 283 278 277 276 273 269 262 265 265 263 263 258 255 257 258 256 255 250
311 308 304 301 299 297 294 291 284 281 279 276 272 268 268 263 272 280 276 278 280 281 281 279 279 279 276 274 271 269 269 264 263 262 260 260 258 255 255 257 254 255 254
308 305 304 295 294 291 291 292 283 280 278 274 273 269 267 268 273 276 274 280 280 281 282 283 279 277 277 277 271 267 266 264 264 262 261 260 259 256 254 255 255 259 256
302 300 301 294 291 290 293 293 286 282 277 271 272 268 268 270 272 275 277 276 278 279 282 282 276 276 278 276 272 269 266 265 265 262 260 260 258 256 255 255 258 257 256
296 292 292 290 286 287 289 287 282 282 277 271 272 271 271 272 275 278 277 278 280 280 283 282 279 278 278 273 270 268 266 263 262 261 258 258 258 256 255 257 260 260 259
294 289 291 290 282 282 282 281 281 281 276 274 274 272 273 275 280 280 278 279 279 281 283 284 282 280 278 274 270 269 268 265 262 260 258 257 257 256 255 257 261 260 260
291 288 287 287 281 277 278 278 281 278 276 275 274 275 274 276 277 278 279 280 280 281 283 285 284 282 281 277 272 269 268 266 263 260 258 258 256 258 257 259 261 262 262
289 288 286 281 277 277 279 281 280 279 276 275 273 274 274 275 276 277 280 281 280 280 281 285 287 283 280 276 272 271 269 266 263 260 259 259 258 260 260 261 261 261 261
285 287 284 281 276 277 279 281 279 279 275 276 272 272 274 274 273 276 279 282 281 281 283 286 284 282 278 275 272 271 270 265 261 260 260 259 259 260 261 261 261 261 260
281 282 281 276 275 277 277 280 278 273 271 272 273 276 277 274 269 272 278 282 281 281 284 284 283 280 277 273 272 272 271 266 262 262 261 260 259 259 261 259 259 260 261
280 280 282 277 274 278 275 277 280 278 276 276 277 277 275 273 272 271 275 279 281 282 283 283 283 281 277 275 276 275 270 266 263 263 264 263 262 261 259 259 260 262 260
273 276 279 276 275 281 278 277 276 275 275 275 274 272 269 269 270 271 275 281 282 281 282 283 281 281 278 278 278 276 273 268 263 261 261 263 264 263 262 264 264 264 262
270 273 276 276 278 281 278 276 274 274 274 273 271 271 271 269 270 273 276 281 284 283 282 281 280 280 279 278 278 278 275 270 267 263 261 263 263 263 263 263 264 264 264
269 271 275 277 279 281 277 272 272 273 273 272 272 275 275 274 274 276 276 279 283 285 282 281 281 280 280 281 280 278 276 272 270 266 263 263 263 263 263 261 263 263 263
Height
5878 5877 5877 5876 5876 5875 5874 5874 5873 5873 5873 5873 5873 5873 5874 5874 5874 5875 5875 5875 5876 5876 5877 5877 5877 5877 5878 5878 5879 5879 5879 5879 5880 5880 5881 5882 5883 5884 5885 5886 5886 5887 5888
5877 5877 5876 5876 5875 5874 5874 5873 5873 5873 5872 5872 5873 5873 5873 5873 5874 5874 5874 5875 5875 5875 5876 5876 5876 5877 5877 5877 5878 5878 5878 5878 5879 5879 5880 5881 5882 5883 5884 5884 5885 5886 5887
5876 5876 5875 5875 5874 5874 5873 5873 5872 5872 5872 5872 5872 5872 5873 5873 5873 5873 5874 5874 5874 5874 5875 5875 5875 5876 5876 5877 5877 5877 5877 5877 5878 5878 5879 5879 5880 5881 5882 5883 5884 5885 5886
5875 5875 5875 5874 5873 5873 5873 5872 5871 5871 5871 5871 5871 5871 5872 5872 5872 5873 5873 5873 5873 5874 5874 5874 5874 5875 5875 5875 5875 5876 5876 5876 5876 5877 5877 5878 5878 5879 5880 5882 5883 5884 5885
5875 5874 5874 5873 5873 5872 5871 5871 5870 5870 5870 5870 5870 5871 5871 5871 5871 5871 5872 5872 5872 5872 5873 5873 5873 5873 5874 5874 5874 5874 5874 5874 5875 5875 5875 5876 5876 5877 5879 5880 5882 5883 5884
5873 5873 5872 5871 5871 5871 5870 5870 5869 5869 5869 5869 5869 5869 5870 5870 5870 5870 5870 5871 5871 5871 5872 5872 5872 5872 5872 5872 5872 5872 5873 5873 5873 5873 5873 5873 5874 5876 5877 5879 5880 5881 5883
5872 5871 5870 5870 5869 5869 5869 5868 5868 5868 5868 5868 5868 5868 5868 5869 5869 5869 5869 5869 5870 5870 5870 5871 5871 5871 5871 5871 5871 5871 5871 5871 5871 5871 5872 5872 5873 5874 5876 5877 5879 5880 5881
5870 5869 5868 5868 5867 5867 5867 5867 5867 5867 5867 5867 5867 5867 5867 5867 5868 5868 5868 5868 5868 5869 5869 5869 5869 5869 5869 5869 5870 5870 5870 5870 5870 5870 5870 5871 5872 5873 5874 5876 5877 5878 5879
5868 5867 5866 5866 5866 5866 5865 5865 5865 5865 5865 5865 5865 5866 5866 5866 5866 5866 5866 5867 5867 5867 5867 5867 5868 5868 5868 5868 5868 5868 5868 5868 5869 5869 5869 5870 5871 5872 5873 5874 5875 5876 5877
5866 5865 5864 5864 5864 5864 5864 5863 5863 5863 5863 5864 5864 5864 5864 5865 5865 5865 5865 5865 5865 5865 5866 5866 5866 5866 5866 5866 5866 5866 5866 5867 5868 5868 5868 5869 5870 5870 5871 5873 5873 5874 5875
5864 5863 5862 5862 5862 5862 5862 5862 5861 5861 5862 5862 5862 5862 5862 5863 5863 5863 5863 5863 5863 5864 5864 5864 5864 5864 5864 5864 5864 5864 5865 5865 5866 5866 5867 5867 5868 5869 5870 5871 5871 5872 5873
5862 5861 5861 5860 5860 5860 5860 5859 5859 5859 5859 5860 5860 5860 5860 5861 5861 5861 5861 5861 5861 5861 5862 5862 5862 5862 5862 5862 5862 5862 5863 5863 5864 5864 5865 5866 5866 5867 5868 5869 5869 5870 5870
5859 5859 5858 5858 5858 5857 5857 5857 5857 5857 5857 5857 5858 5858 5859 5858 5858 5859 5859 5859 5859 5859 5859 5859 5859 5859 5860 5860 5860 5860 5860 5861 5862 5862 5863 5863 5864 5865 5866 5866 5867 5868 5868
5858 5857 5856 5856 5855 5855 5854 5854 5855 5855 5855 5855 5856 5856 5855 5855 5856 5856 5856 5856 5856 5856 5857 5857 5857 5857 5857 5857 5857 5858 5858 5859 5859 5860 5860 5861 5862 5862 5863 5864 5865 5866 5866
5855 5855 5854 5853 5853 5852 5852 5852 5852 5852 5853 5853 5853 5853 5853 5854 5854 5853 5853 5853 5853 5853 5854 5854 5854 5854 5854 5854 5854 5855 5855 5856 5857 5857 5858 5858 5859 5860 5860 5861 5862 5863 5864
5853 5852 5851 5851 5850 5850 5849 5849 5850 5850 5850 5851 5851 5851 5851 5851 5851 5851 5851 5851 5850 5850 5850 5850 5850 5851 5851 5851 5851 5852 5852 5853 5853 5854 5855 5856 5856 5857 5858 5859 5859 5860 5861
5850 5850 5849 5848 5847 5847 5847 5847 5847 5848 5848 5848 5848 5848 5848 5848 5848 5848 5848 5848 5847 5847 5847 5847 5847 5847 5847 5847 5848 5848 5849 5849 5850 5851 5851 5852 5853 5854 5855 5855 5856 5857 5858
5848 5847 5846 5845 5845 5845 5845 5845 5845 5845 5845 5845 5845 5845 5846 5845 5845 5845 5845 5844 5844 5844 5843 5843 5843 5843 5843 5843 5844 5844 5845 5845 5846 5847 5847 5848 5849 5850 5851 5851 5852 5853 5854
5845 5844 5844 5843 5843 5842 5843 5843 5843 5842 5842 5842 5842 5842 5842 5842 5842 5842 5842 5841 5841 5840 5840 5840 5839 5839 5839 5839 5840 5840 5840 5841 5842 5842 5843 5844 5845 5845 5846 5847 5848 5849 5850
5842 5842 5841 5841 5840 5840 5840 5840 5839 5839 5839 5839 5839 5839 5839 5839 5838 5838 5838 5838 5837 5837 5837 5836 5835 5835 5835 5835 5835 5836 5836 5836 5837 5838 5839 5839 5840 5841 5842 5843 5843 5844 5845
5839 5839 5839 5838 5838 5837 5837 5837 5836 5836 5836 5836 5835 5835 5835 5835 5835 5835 5835 5835 5834 5834 5833 5833 5832 5831 5831 5831 5831 5831 5831 5831 5832 5833 5834 5834 5835 5836 5837 5838 5838 5839 5840
5836 5836 5835 5835 5835 5834 5834 5834 5833 5833 5832 5832 5832 5831 5831 5830 5831 5831 5831 5831 5831 5830 5829 5829 5828 5827 5827 5827 5827 5827 5827 5828 5827 5828 5829 5829 5830 5831 5832 5832 5833 5834 5834
5833 5832 5832 5832 5831 5831 5830 5830 5830 5829 5829 5828 5828 5828 5827 5827 5827 5828 5828 5827 5827 5826 5825 5825 5824 5824 5823 5823 5823 5823 5822 5823 5823 5824 5824 5825 5825 5826 5826 5827 5827 5828 5829
5829 5829 5828 5828 5828 5827 5826 5826 5826 5825 5825 5824 5824 5824 5823 5823 5824 5824 5824 5823 5823 5822 5821 5821 5820 5819 5819 5819 5818 5818 5818 5818 5819 5819 5820 5820 5820 5820 5821 5822 5822 5823 5823
5825 5824 5824 5824 5823 5823 5822 5822 5821 5821 5820 5820 5820 5820 5820 5820 5820 5820 5820 5819 5819 5818 5817 5817 5816 5816 5815 5814 5814 5814 5813 5813 5814 5814 5815 5815 5815 5815 5816 5816 5817 5817 5818
5821 5820 5820 5819 5819 5818 5817 5817 5816 5816 5816 5816 5816 5816 5816 5816 5816 5816 5816 5815 5815 5814 5813 5813 5812 5812 5811 5810 5810 5809 5809 5809 5809 5809 5810 5810 5810 5811 5811 5811 5811 5812 5812